Regional Weather Roundup
Issued by NWS

Home | Current Version | Previous Version | Graphics & Text | Print | Product List | Glossary On
Versions: 1 2 3 4 5 6 7 8 9 10 11 12 13 14 15 16 17 18 19 20 21 22 23 24 25 26 27 28 29 30 31 32 33 34 35 36 37 38 39 40 41 42 43 44 45 46 47 48 49 50
000
ASUS43 KIND 290209
RWRIN

WEATHER ROUNDUP FOR INDIANA
NATIONAL WEATHER SERVICE INDIANAPOLIS IN
900 PM EST FRI NOV 28 2014

NOTE: "FAIR" INDICATES FEW OR NO CLOUDS BELOW 12,000 FEET WITH NO
SIGNIFICANT WEATHER AND/OR OBSTRUCTIONS TO VISIBILITY.

* - STATION DOES NOT REPORT WEATHER SUCH AS PRECIPITATION OR FOG.

+ - STATION NOT QUALITY CONTROLLED BY THE NATIONAL WEATHER SERVICE.
    USE DATA WITH CAUTION...ESPECIALLY DEWPOINT AND RELATIVE
    HUMIDITY OBSERVATIONS.

INZ001>003-010>013-019-020-290300-
NORTHWEST INDIANA

CITY           SKY/WX    TMP DP  RH WIND       PRES   REMARKS
GARY /AIRPORT/ CLOUDY    34  25  69 SE17      29.97F WCI  23
KNOX *+        MOCLDY    30  23  73 S15       30.01F WCI  19
LA PORTE +     CLOUDY    32  24  73 S9G18     29.99F WCI  24
MICHIGAN CITY+ CLOUDY    32  21  64 S10G17    29.98F WCI  24
MONTICELLO +   PTCLDY    32  24  73 SE6       30.02F WCI  26
RENSSELAER +   MOCLDY    32  28  86 SE8       30.00F WCI  25
VALPARAISO     CLOUDY    30  22  72 SE13      29.99F WCI  20

$$

LMZ046-743>745-290300-
SOUTHERN LAKE MICHIGAN

STATION/POSITION TIME  TEMP WIND        PRES
                       AIR  DIR/SP/G
                 (UTC) (F)  (DEG/KT/KT) (MB)
MICHIGAN CITY    0200   31  140/ 18/ 24   N/A

$$

INZ004-005-014>016-021>024-290300-
NORTH CENTRAL INDIANA

CITY           SKY/WX    TMP DP  RH WIND       PRES   REMARKS
GOSHEN         CLOUDY    29  20  69 S10       30.04F WCI  20
LOGANSPORT +   MOCLDY    30  23  74 SE9       30.05S WCI  22
PERU/GRISSOM   CLOUDY    30  26  83 S13       30.03F WCI  20
ROCHESTER +    MOCLDY    32  27  80 S8        30.04F WCI  25
SOUTH BEND     CLOUDY    31  22  69 S16       30.01F WCI  20
WARSAW +       MOCLDY    30  21  69 S3        30.05F

$$

INZ006>009-017-018-025>027-290300-
NORTHEAST INDIANA

CITY           SKY/WX    TMP DP  RH WIND       PRES   REMARKS
ANGOLA *+      PTCLDY    27  19  74 S8        30.04F WCI  18
AUBURN +       MOCLDY    30  19  64 CALM      30.07F
FORT WAYNE     MOCLDY    30  20  66 S10       30.09S WCI  21
HUNTINGTON +   MOCLDY    30  20  66 S8        30.07F WCI  23

$$

INZ028-029-035-036-043>045-051>053-290300-
WEST CENTRAL INDIANA

CITY           SKY/WX    TMP DP  RH WIND       PRES   REMARKS
GREENCASTLE +  MOCLDY    32  27  80 S6        30.04F WCI  26
LAFAYETTE      MOCLDY    32  24  72 S10       30.01F WCI  24
TERRE HAUTE    MOCLDY    36  26  67 S10       30.04F

$$

INZ030>032-037>040-046>048-054>057-064-065-290300-
CENTRAL INDIANA

CITY           SKY/WX    TMP DP  RH WIND       PRES   REMARKS
CP ATTERBURY + MOCLDY    34  23  64 S8        30.08F WCI  27
FRANKFORT +    CLOUDY    31  26  81 SE9       30.04F WCI  23
INDIANAPOLIS   MOCLDY    31  21  66 SE9       30.05F WCI  23
-EAGLE CREEK   MOCLDY    32  22  66 SE6       30.05F WCI  26
KOKOMO *+      CLOUDY    30  21  69 S14       30.05F WCI  20
MARION +         N/A     30  20  66 S12       30.07F WCI  21
MT COMFORT *+  MOCLDY    32  14  47 S9        30.07F WCI  24
SHELBYVILLE    PTCLDY    34  22  61 S10       30.08S WCI  26
ZIONSVILLE +   MOCLDY    33  22  64 S10       30.05F WCI  24

$$

INZ033-034-041-042-049-050-058-059-290300-
EAST CENTRAL INDIANA

CITY           SKY/WX    TMP DP  RH WIND       PRES   REMARKS
MUNCIE         CLOUDY    31  18  58 S12       30.08S WCI  22

$$

INZ060-061-067>069-081>083-085>088-290300-
SOUTHWEST INDIANA

CITY           SKY/WX    TMP DP  RH WIND       PRES   REMARKS
EVANSVILLE     PTCLDY    39  26  59 SE5       30.07F
HUNTINGBURG *+ MOCLDY    37  23  56 S7        30.08F
WASHINGTON +   MOCLDY    36  28  73 S9        30.06F

$$

INZ062-063-066-070>080-084-089>092-290300-
SOUTH CENTRAL AND SOUTHEAST INDIANA

CITY           SKY/WX    TMP DP  RH WIND       PRES   REMARKS
BLOOMINGTON    MOCLDY    34  25  69 S8        30.05F WCI  27

$$



USA.gov is the U.S. government's official web portal to all federal, state and local government web resources and services.